When you browse on this site, cookies collect data to enhance your experience and personalize the content and advertising you see.
Visit our Privacy Policy to learn more. By continuing to use the site, you agree to this use of cookies and data.
  • In Österreich
  • Länderverzeichnis
  • Für 7 Tage
  • Wassertemperatur
  • Wetterkarte
  • News
  • Widgets
  • user-avatar
    Anmelden

    Stündliche Wetter Towson

    Heute, 13 November, Mittwoch

    Zeit Temperatur Niederschläge Wind Luftdruck Luftfeuchtigkeit
    00:00 -7°C° 0 mm 4 m/S 758 mmHg 47%
    01:00 -7°C° 0 mm 4 m/S 759 mmHg 46%
    02:00 -7°C° 0 mm 4 m/S 759 mmHg 47%
    03:00 -7°C° 0 mm 4 m/S 759 mmHg 49%
    04:00 -7°C° 0 mm 4 m/S 759 mmHg 50%
    05:00 -7°C° 0 mm 4 m/S 760 mmHg 52%
    06:00 -7°C° 0 mm 4 m/S 760 mmHg 54%
    07:00 -7°C° 0 mm 4 m/S 761 mmHg 55%
    08:00 -5°C° 0 mm 4 m/S 761 mmHg 51%
    09:00 -4°C° 0 mm 4 m/S 761 mmHg 46%
    10:00 -3°C° 0 mm 4 m/S 762 mmHg 41%
    11:00 -2°C° 0 mm 4 m/S 761 mmHg 38%
    12:00 0°C° 0 mm 3 m/S 761 mmHg 35%
    13:00 +1°C° 0 mm 3 m/S 761 mmHg 32%
    14:00 +2°C° 0 mm 2 m/S 761 mmHg 31%
    15:00 +3°C° 0 mm 1 m/S 761 mmHg 31%
    16:00 +3°C° 0 mm 1 m/S 761 mmHg 31%
    17:00 +2°C° 0 mm 1 m/S 761 mmHg 33%
    18:00 +2°C° 0 mm 1 m/S 761 mmHg 36%
    19:00 +1°C° 0 mm 1 m/S 762 mmHg 38%
    20:00 +1°C° 0 mm 1 m/S 762 mmHg 40%
    21:00 -1°C° 0 mm 2 m/S 762 mmHg 42%
    22:00 -2°C° 0 mm 2 m/S 762 mmHg 44%
    23:00 -2°C° 0 mm 2 m/S 762 mmHg 45%

    Morgen, 14 November, Donnerstag

    Zeit Temperatur Niederschläge Wind Luftdruck Luftfeuchtigkeit
    00:00 -2°C° 0 mm 2 m/S 762 mmHg 47%
    01:00 -2°C° 0 mm 3 m/S 762 mmHg 49%
    02:00 -2°C° 0 mm 3 m/S 762 mmHg 51%
    03:00 -2°C° 0 mm 3 m/S 761 mmHg 53%
    04:00 -2°C° 0 mm 3 m/S 761 mmHg 55%
    05:00 -2°C° 0 mm 3 m/S 761 mmHg 55%
    06:00 -2°C° 0 mm 3 m/S 762 mmHg 55%
    07:00 -2°C° 0 mm 3 m/S 762 mmHg 55%
    08:00 -1°C° 0 mm 3 m/S 762 mmHg 51%
    09:00 0°C° 0 mm 4 m/S 762 mmHg 46%
    10:00 +1°C° 0 mm 5 m/S 762 mmHg 42%
    11:00 +2°C° 0 mm 5 m/S 761 mmHg 42%
    12:00 +4°C° 0 mm 4 m/S 761 mmHg 43%
    13:00 +5°C° 0 mm 4 m/S 761 mmHg 43%
    14:00 +5°C° 0 mm 4 m/S 760 mmHg 47%
    15:00 +5°C° 0 mm 3 m/S 759 mmHg 50%
    16:00 +4°C° 0 mm 3 m/S 759 mmHg 54%
    17:00 +5°C° 0 mm 2 m/S 759 mmHg 57%
    18:00 +4°C° 0 mm 2 m/S 759 mmHg 61%
    19:00 +3°C° 0 mm 2 m/S 759 mmHg 65%
    20:00 +3°C° 0 mm 2 m/S 759 mmHg 65%
    21:00 +3°C° 0 mm 2 m/S 759 mmHg 65%
    22:00 +3°C° 0 mm 2 m/S 759 mmHg 65%
    23:00 +2°C° 0 mm 2 m/S 759 mmHg 64%

    übermorgen, 15 November, Freitag

    Zeit Temperatur Niederschläge Wind Luftdruck Luftfeuchtigkeit
    00:00 +2°C° 0 mm 2 m/S 759 mmHg 63%
    01:00 +3°C° 0 mm 1 m/S 759 mmHg 62%
    02:00 +3°C° 0 mm 1 m/S 759 mmHg 60%
    03:00 +3°C° 0 mm 1 m/S 758 mmHg 58%
    04:00 +2°C° 0 mm 1 m/S 758 mmHg 55%
    05:00 +3°C° 0 mm 1 m/S 758 mmHg 56%
    06:00 +2°C° 0 mm 2 m/S 758 mmHg 54%
    07:00 +2°C° 0 mm 2 m/S 758 mmHg 51%
    08:00 +4°C° 0 mm 2 m/S 758 mmHg 49%
    09:00 +5°C° 0 mm 2 m/S 758 mmHg 46%
    10:00 +7°C° 0 mm 2 m/S 758 mmHg 44%
    11:00 +8°C° 0 mm 2 m/S 757 mmHg 44%
    12:00 +9°C° 0 mm 3 m/S 756 mmHg 44%
    13:00 +10°C° 0 mm 3 m/S 756 mmHg 44%
    14:00 +10°C° 0 mm 3 m/S 755 mmHg 48%
    15:00 +9°C° 0 mm 2 m/S 755 mmHg 53%
    16:00 +9°C° 0 mm 2 m/S 755 mmHg 57%
    17:00 +8°C° 0 mm 3 m/S 756 mmHg 62%
    18:00 +5°C° 0 mm 4 m/S 756 mmHg 66%
    19:00 +4°C° 0 mm 4 m/S 756 mmHg 71%
    20:00 +2°C° 0 mm 5 m/S 757 mmHg 71%
    21:00 +1°C° 0 mm 5 m/S 757 mmHg 72%
    22:00 +1°C° 0 mm 5 m/S 757 mmHg 72%
    23:00 -1°C° 0 mm 6 m/S 757 mmHg 72%

    16 November, Samstag

    Zeit Temperatur Niederschläge Wind Luftdruck Luftfeuchtigkeit
    00:00 -1°C° 0 mm 6 m/S 757 mmHg 72%
    01:00 -2°C° 0 mm 6 m/S 757 mmHg 72%
    02:00 -2°C° 0 mm 7 m/S 757 mmHg 71%
    03:00 -3°C° 0 mm 7 m/S 757 mmHg 70%
    04:00 -3°C° 0 mm 7 m/S 757 mmHg 69%
    05:00 -4°C° 0 mm 7 m/S 758 mmHg 64%
    06:00 -6°C° 0 mm 7 m/S 758 mmHg 60%
    07:00 -7°C° 0 mm 7 m/S 759 mmHg 56%
    08:00 -6°C° 0 mm 7 m/S 759 mmHg 49%
    09:00 -4°C° 0 mm 6 m/S 760 mmHg 43%
    10:00 -3°C° 0 mm 6 m/S 760 mmHg 37%
    11:00 -2°C° 0 mm 6 m/S 760 mmHg 33%
    12:00 -1°C° 0 mm 6 m/S 760 mmHg 30%
    13:00 +1°C° 0 mm 6 m/S 759 mmHg 26%
    14:00 0°C° 0 mm 5 m/S 759 mmHg 27%
    15:00 0°C° 0 mm 5 m/S 759 mmHg 28%
    16:00 0°C° 0 mm 5 m/S 759 mmHg 29%
    17:00 -1°C° 0 mm 4 m/S 759 mmHg 32%
    18:00 -2°C° 0 mm 4 m/S 759 mmHg 36%
    19:00 -3°C° 0 mm 4 m/S 760 mmHg 39%
    20:00 -3°C° 0 mm 4 m/S 760 mmHg 40%
    21:00 -4°C° 0 mm 4 m/S 759 mmHg 41%
    22:00 -4°C° 0 mm 4 m/S 759 mmHg 42%
    23:00 -4°C° 0 mm 4 m/S 759 mmHg 43%

    17 November, Sonntag

    Zeit Temperatur Niederschläge Wind Luftdruck Luftfeuchtigkeit
    00:00 -4°C° 0 mm 4 m/S 759 mmHg 44%
    01:00 -4°C° 0 mm 4 m/S 758 mmHg 44%
    02:00 -4°C° 0 mm 4 m/S 758 mmHg 45%
    03:00 -6°C° 0 mm 5 m/S 758 mmHg 46%
    04:00 -6°C° 0 mm 5 m/S 757 mmHg 48%
    05:00 -6°C° 0 mm 5 m/S 757 mmHg 50%
    06:00 -5°C° 0 mm 4 m/S 757 mmHg 53%
    07:00 -5°C° 0 mm 4 m/S 757 mmHg 56%
    08:00 -3°C° 0 mm 4 m/S 757 mmHg 55%
    09:00 -2°C° 0 mm 4 m/S 757 mmHg 54%
    10:00 -1°C° 0 mm 4 m/S 757 mmHg 52%
    11:00 +1°C° 0 mm 4 m/S 756 mmHg 53%
    12:00 +4°C° 0 mm 3 m/S 755 mmHg 53%
    13:00 +5°C° 0 mm 3 m/S 755 mmHg 54%
    14:00 +5°C° 0 mm 3 m/S 754 mmHg 57%
    15:00 +5°C° 0 mm 3 m/S 754 mmHg 60%
    16:00 +5°C° 0 mm 3 m/S 753 mmHg 63%
    17:00 +3°C° 0 mm 3 m/S 753 mmHg 68%
    18:00 +2°C° 0 mm 3 m/S 753 mmHg 73%
    19:00 +2°C° 0 mm 2 m/S 753 mmHg 77%
    20:00 +2°C° 0 mm 2 m/S 753 mmHg 78%
    21:00 +1°C° 0 mm 2 m/S 753 mmHg 79%
    22:00 0°C° 0 mm 3 m/S 753 mmHg 79%
    23:00 +1°C° 0 mm 2 m/S 752 mmHg 79%

    18 November, Montag

    Zeit Temperatur Niederschläge Wind Luftdruck Luftfeuchtigkeit
    00:00 +1°C° 0 mm 2 m/S 752 mmHg 80%
    01:00 -1°C° 0 mm 2 m/S 751 mmHg 80%
    02:00 -1°C° 0 mm 2 m/S 751 mmHg 80%
    03:00 -1°C° 0 mm 2 m/S 751 mmHg 81%
    04:00 -1°C° 0 mm 2 m/S 751 mmHg 81%
    05:00 -1°C° 0 mm 2 m/S 751 mmHg 82%
    06:00 -1°C° 0 mm 2 m/S 751 mmHg 82%
    07:00 -1°C° 0 mm 2 m/S 751 mmHg 83%
    08:00 +1°C° 0 mm 2 m/S 751 mmHg 79%
    09:00 +3°C° 0 mm 2 m/S 751 mmHg 76%
    10:00 +5°C° 0 mm 1 m/S 752 mmHg 72%
    11:00 +6°C° 0 mm 1 m/S 751 mmHg 73%
    12:00 +6°C° 0 mm 1 m/S 751 mmHg 73%
    13:00 +7°C° 0 mm 1 m/S 750 mmHg 74%
    14:00 +7°C° 0 mm 1 m/S 750 mmHg 76%
    15:00 +6°C° 0 mm 2 m/S 750 mmHg 79%
    16:00 +6°C° 0 mm 2 m/S 749 mmHg 82%
    17:00 +6°C° 0 mm 2 m/S 749 mmHg 84%
    18:00 +5°C° 0 mm 2 m/S 749 mmHg 86%
    19:00 +5°C° 0 mm 2 m/S 749 mmHg 88%
    20:00 +5°C° 0.1 mm 2 m/S 749 mmHg 89%
    21:00 +5°C° 0.1 mm 2 m/S 749 mmHg 89%
    22:00 +5°C° 0.1 mm 2 m/S 749 mmHg 90%
    23:00 +5°C° 0.1 mm 2 m/S 749 mmHg 91%
    Mehr zeigen